Regional Weather Roundup
Issued by NWS Albany, NY

Home | Current Version | Previous Version | Text Only | Print | Product List | Glossary On
Versions: 1 2 3 4 5 6 7 8 9 10 11 12 13 14 15 16 17 18 19 20 21 22 23 24 25 26 27 28 29 30 31 32 33 34 35 36 37 38 39 40 41 42 43 44 45 46 47 48 49 50
000
ASUS41 KALY 210810
RWRALY

NEW YORK STATE HOURLY WEATHER ROUNDUP
NATIONAL WEATHER SERVICE ALBANY NY
400 AM EDT THU AUG 21 2014

NOTE: "FAIR" INDICATES FEW OR NO CLOUDS BELOW 12,000 FEET WITH NO
SIGNIFICANT WEATHER AND/OR NO OBSTRUCTIONS TO VISIBILITY.

NYZ032-033-038>043-046>054-057>066-NYZ062>081-210900-
EAST


CITY           SKY/WX    TMP DP  RH WIND       PRES   REMARKS
ALBANY         CLOUDY    68  64  87 SE6       30.01S
GLENS FALLS    LGT RAIN  68  66  93 VRB5      30.02R
POUGHKEEPSIE   LGT RAIN  68  60  75 S5        30.02S
NEWBURGH       DRIZZLE   68  61  77 CALM      30.05S
MONTGOMERY     LGT RAIN  64  61  90 CALM      30.03S
WHITE PLAINS   MOCLDY    67  63  87 CALM      30.03F
ISLIP          MOCLDY    66  62  87 CALM      30.02S
NEW YORK CITY  CLOUDY    73  62  68 W3        30.02F
CENTRAL PARK   CLOUDY    71  61  70 CALM      30.05F
$$

NYZ005>009-017-018-044>046-055-056-210900-
CENTRAL


CITY           SKY/WX    TMP DP  RH WIND       PRES   REMARKS
FULTON         MOCLDY    68  66  93 SE6       29.93F FOG
SYRACUSE       MOCLDY    66  65  96 E5        29.94S
ROME           CLOUDY    67  67 100 E7        29.97F
ELMIRA         MOCLDY    66  65  96 CALM      29.96S FOG
BINGHAMTON     MOCLDY    65  64  97 S5        30.00S
MONTICELLO     MOCLDY    63  63 100 E5        30.06R
$$

NYZ026>034-041>043-210900-
NORTH


CITY           SKY/WX    TMP DP  RH WIND       PRES   REMARKS
WATERTOWN      MOCLDY    65  61  87 CALM      29.94R FOG
FORT DRUM      NOT AVBL
MASSENA        CLOUDY    67  67 100 E6        29.98S
SARANAC LAKE   CLOUDY    63  61  93 E6        30.01F
PLATTSBURGH    CLOUDY    64  62  93 S3        29.99S
$$

NYZ001>004-010>016-019>021-210900-
WEST


CITY           SKY/WX    TMP DP  RH WIND       PRES   REMARKS
NIAGARA FALLS  PTCLDY    68  65  90 SW9       29.91F
BUFFALO        CLOUDY    68  63  84 S5        29.92F
DUNKIRK        PTCLDY    69  64  84 S8        29.94R
JAMESTOWN      PTCLDY    63  57  82 S5        29.99S
WELLSVILLE     CLOUDY    65  63  93 SW5       30.02F
ROCHESTER      PTCLDY    65  64  97 SW7       29.93S
PENN YAN       MOCLDY    68  67  96 S8        29.96S
$$

             KEY
       WCI = WIND CHILL INDEX
       VSB = VISIBILITY
       HX  = HEAT INDEX
$$



USA.gov is the U.S. government's official web portal to all federal, state and local government web resources and services.